This is the latest recevied weather packets stored in our database for station/object WA6OOO. If no packets are shown the sender has not sent any weather packets the latest 10 day(s).
| Time | Temp. | Humidity | Pressure | Rain* | Wind** | Luminosity | Snow |
|---|---|---|---|---|---|---|---|
| 1788461215 | 23.89° C | 68% | 1017.7 hPa | 0 mm | - | 657 W/m² | - |
| 1788460920 | 23.89° C | 68% | 1017.7 hPa | 0 mm | - | 652 W/m² | - |
| 1788460610 | 23.89° C | 68% | 1017.7 hPa | 0 mm | - | 645 W/m² | - |
| 1788460305 | 23.89° C | 68% | 1017.7 hPa | 0 mm | - | 637 W/m² | - |
| 1788460004 | 23.89° C | 67% | 1017.8 hPa | 0 mm | - | 630 W/m² | - |
| 1788459700 | 23.33° C | 70% | 1017.7 hPa | 0 mm | - | 625 W/m² | - |
| 1788459398 | 23.89° C | 68% | 1017.8 hPa | 0 mm | - | 613 W/m² | - |
| 1788459093 | 23.89° C | 67% | 1017.7 hPa | 0 mm | - | 607 W/m² | - |
| 1788458789 | 23.89° C | 67% | 1017.7 hPa | 0 mm | - | 603 W/m² | - |
| 1788458488 | 24.44° C | 59% | 1017.7 hPa | 0 mm | - | 570 W/m² | - |
| 1788458187 | 24.44° C | 59% | 1017.7 hPa | 0 mm | - | 570 W/m² | - |
| 1788457887 | 24.44° C | 59% | 1017.5 hPa | 0 mm | - | 570 W/m² | - |
| 1788457581 | 23.89° C | 61% | 1017.6 hPa | 0 mm | - | 565 W/m² | - |
| 1788457276 | 23.89° C | 63% | 1017.6 hPa | 0 mm | - | 539 W/m² | - |
| 1788456971 | 23.89° C | 63% | 1017.7 hPa | 0 mm | - | 539 W/m² | - |
| 1788456668 | 22.22° C | 70% | 1017.7 hPa | 0 mm | - | 415 W/m² | - |
| 1788456363 | 22.22° C | 70% | 1017.7 hPa | 0 mm | - | 415 W/m² | - |
| 1788456058 | 22.22° C | 70% | 1017.8 hPa | 0 mm | - | 415 W/m² | - |
| 1788455758 | 22.22° C | 70% | 1017.8 hPa | 0 mm | - | 415 W/m² | - |
| 1788455454 | 22.22° C | 70% | 1017.8 hPa | 0 mm | - | 415 W/m² | - |
| 1788455152 | 22.22° C | 70% | 1017.7 hPa | 0 mm | - | 415 W/m² | - |
| 1788454848 | 22.22° C | 70% | 1017.7 hPa | 0 mm | - | 415 W/m² | - |
| 1788454545 | 22.22° C | 70% | 1017.7 hPa | 0 mm | - | 415 W/m² | - |
| 1788454240 | 22.22° C | 70% | 1017.8 hPa | 0 mm | - | 415 W/m² | - |
| 1788453934 | 22.22° C | 70% | 1017.7 hPa | 0 mm | - | 415 W/m² | - |
* Rain latest hour (hover to see other rain measurements)
** Current wind speed in m/s (hover to see current wind gust speed)